Simultaneous Nadir Overpasses (SNOs) Predictions

Prediction of SNOs between FY3D and NPP Satellite Orbit:

Table of predicted SNOs for the next 14.0 days since TLE Epoch: 12/28/2019
Index Date (FY3D) Time (FY3D) Lat,Lon (FY3D) SZA (FY3D ) Date (NPP) Time (NPP) Lat,Lon (NPP) SZA (NPP ) Distance(km) Time Diff (sec)
1 12/28/2019 03:27:13 81.28, 65.70 109.08 12/28/2019 03:26:36 81.28, 65.55 109.12 2.67 37
2 12/28/2019 04:17:57 -81.27,-126.93 70.94 12/28/2019 04:17:20 -81.27,-126.74 70.94 3.20 37
3 12/28/2019 05:08:43 81.28, 39.98 109.12 12/28/2019 05:08:06 81.28, 40.11 109.13 2.17 37
4 12/28/2019 05:59:27 -81.28,-152.65 70.89 12/28/2019 05:58:51 -81.28,-152.56 70.88 1.44 36
5 12/28/2019 06:50:12 81.28, 14.66 109.12 12/28/2019 06:49:36 81.28, 14.68 109.13 0.39 36
6 12/28/2019 07:40:56 -81.28,-177.98 70.90 12/28/2019 07:40:21 -81.28,-178.00 70.88 0.33 35
7 12/28/2019 08:31:41 81.28, -10.67 109.11 12/28/2019 08:31:06 81.28, -10.75 109.14 1.39 35
8 12/28/2019 09:22:26 -81.28, 156.30 70.85 12/28/2019 09:21:52 -81.29, 156.18 70.82 2.09 34
9 12/28/2019 10:13:10 81.28, -36.00 109.10 12/28/2019 10:12:36 81.28, -36.19 109.14 3.18 34
10 12/28/2019 11:03:54 -81.28, 131.37 70.91 12/28/2019 11:03:20 -81.27, 131.53 70.92 2.74 34
11 12/28/2019 11:54:40 81.28, -61.72 109.14 12/28/2019 11:54:06 81.28, -61.62 109.15 1.66 34
12 12/28/2019 12:45:23 -81.28, 106.04 70.92 12/28/2019 12:44:50 -81.28, 106.09 70.91 0.98 33
13 12/28/2019 13:36:09 81.28, -87.05 109.14 12/28/2019 13:35:36 81.28, -87.05 109.16 0.13 33
14 12/28/2019 14:26:53 -81.28, 80.32 70.88 12/28/2019 14:26:21 -81.28, 80.27 70.85 0.79 32
15 12/28/2019 15:17:37 81.28,-111.98 109.07 12/28/2019 15:17:05 81.28,-112.10 109.11 1.90 32
16 12/28/2019 16:08:22 -81.28, 54.99 70.89 12/28/2019 16:07:51 -81.28, 54.84 70.85 2.55 31
17 12/28/2019 16:59:07 81.28,-137.70 109.12 12/28/2019 16:58:35 81.28,-137.53 109.11 2.93 32
18 12/28/2019 17:49:51 -81.28, 29.66 70.89 12/28/2019 17:49:20 -81.28, 29.80 70.90 2.28 31
19 12/28/2019 18:40:36 81.28,-163.03 109.11 12/28/2019 18:40:05 81.28,-162.96 109.12 1.15 31
20 12/28/2019 19:31:20 -81.28, 4.34 70.90 12/28/2019 19:30:50 -81.28, 4.37 70.89 0.51 30
21 12/28/2019 20:22:05 81.28, 171.64 109.10 12/28/2019 20:21:35 81.28, 171.60 109.12 0.63 30
22 12/28/2019 21:12:50 -81.28, -21.38 70.86 12/28/2019 21:12:21 -81.29, -21.46 70.83 1.25 29
23 12/28/2019 22:03:34 81.28, 146.31 109.09 12/28/2019 22:03:05 81.28, 146.17 109.13 2.41 29
24 12/28/2019 22:54:19 -81.28, -46.71 70.87 12/28/2019 22:53:51 -81.29, -46.89 70.83 3.01 28
25 12/28/2019 23:45:04 81.28, 120.59 109.14 12/28/2019 23:44:35 81.28, 120.74 109.14 2.42 29
26 12/29/2019 00:35:47 -81.28, -71.65 70.93 12/29/2019 00:35:19 -81.28, -71.54 70.93 1.81 28
27 12/29/2019 01:26:33 81.28, 95.27 109.13 12/29/2019 01:26:05 81.28, 95.30 109.14 0.64 28
28 12/29/2019 02:17:17 -81.28, -97.37 70.88 12/29/2019 02:16:50 -81.28, -97.36 70.87 0.05 27
29 12/29/2019 03:08:02 81.28, 69.94 109.12 12/29/2019 03:07:35 81.28, 69.87 109.15 1.14 27
30 12/29/2019 03:58:46 -81.28,-122.69 70.89 12/29/2019 03:58:20 -81.28,-122.80 70.86 1.71 26
31 12/29/2019 04:49:31 81.28, 44.61 109.11 12/29/2019 04:49:05 81.29, 44.44 109.15 2.92 26
32 12/29/2019 05:40:15 -81.28,-148.02 70.90 12/29/2019 05:39:49 -81.28,-147.84 70.91 3.11 26
33 12/29/2019 06:31:00 81.28, 19.28 109.11 12/29/2019 06:30:34 81.28, 19.39 109.10 1.91 26
34 12/29/2019 07:21:44 -81.28,-173.35 70.91 12/29/2019 07:21:19 -81.28,-173.27 70.91 1.35 25
35 12/29/2019 08:12:29 81.28, -6.05 109.10 12/29/2019 08:12:04 81.28, -6.04 109.11 0.14 25
36 12/29/2019 09:03:14 -81.29, 160.93 70.86 12/29/2019 09:02:50 -81.29, 160.91 70.85 0.42 24
37 12/29/2019 09:53:58 81.28, -31.37 109.09 12/29/2019 09:53:34 81.28, -31.47 109.11 1.65 24
38 12/29/2019 10:44:43 -81.28, 135.60 70.87 12/29/2019 10:44:20 -81.29, 135.47 70.84 2.18 23
39 12/29/2019 11:35:28 81.29, -57.09 109.13 12/29/2019 11:35:04 81.28, -56.91 109.12 3.19 24
40 12/29/2019 12:26:11 -81.28, 110.66 70.93 12/29/2019 12:25:48 -81.28, 110.82 70.94 2.65 23
41 12/29/2019 13:16:57 81.28, -82.42 109.12 12/29/2019 13:16:34 81.28, -82.34 109.13 1.40 23
42 12/29/2019 14:07:41 -81.28, 84.95 70.89 12/29/2019 14:07:19 -81.28, 85.00 70.89 0.89 22
43 12/29/2019 14:58:26 81.28,-107.75 109.12 12/29/2019 14:58:04 81.28,-107.77 109.13 0.38 22
44 12/29/2019 15:49:10 -81.28, 59.62 70.90 12/29/2019 15:48:49 -81.28, 59.57 70.88 0.88 21
45 12/29/2019 16:39:55 81.28,-133.08 109.11 12/29/2019 16:39:34 81.29,-133.21 109.14 2.16 21
46 12/29/2019 17:30:40 -81.29, 33.90 70.85 12/29/2019 17:30:20 -81.29, 33.74 70.82 2.64 20
47 12/29/2019 18:21:25 81.29,-158.80 109.15 12/29/2019 18:21:04 81.29,-158.64 109.14 2.68 21
48 12/29/2019 19:12:08 -81.28, 8.96 70.92 12/29/2019 19:11:48 -81.28, 9.09 70.92 2.19 20
49 12/29/2019 20:02:54 81.29, 175.87 109.14 12/29/2019 20:02:34 81.29, 175.93 109.15 0.90 20
50 12/29/2019 20:53:38 -81.29, -16.76 70.87 12/29/2019 20:53:19 -81.29, -16.73 70.86 0.42 19
51 12/29/2019 21:44:22 81.28, 150.94 109.08 12/29/2019 21:44:03 81.28, 150.88 109.10 0.89 19
52 12/29/2019 22:35:07 -81.29, -42.08 70.88 12/29/2019 22:34:49 -81.29, -42.16 70.86 1.34 18
53 12/29/2019 23:25:51 81.28, 125.61 109.07 12/29/2019 23:25:33 81.28, 125.45 109.10 2.67 18
54 12/30/2019 00:16:36 -81.29, -67.41 70.89 12/30/2019 00:16:19 -81.29, -67.60 70.85 3.11 17
55 12/30/2019 01:07:21 81.29, 99.89 109.12 12/30/2019 01:07:03 81.28, 100.02 109.11 2.17 18
56 12/30/2019 01:58:05 -81.28, -92.74 70.90 12/30/2019 01:57:48 -81.28, -92.64 70.90 1.72 17
57 12/30/2019 02:48:49 81.29, 74.56 109.11 12/30/2019 02:48:32 81.28, 74.58 109.11 0.39 17
58 12/30/2019 03:39:33 -81.28,-118.07 70.91 12/30/2019 03:39:17 -81.28,-118.07 70.90 0.05 16
59 12/30/2019 04:30:18 81.28, 49.23 109.10 12/30/2019 04:30:02 81.29, 49.15 109.12 1.40 16
60 12/30/2019 05:21:03 -81.29,-143.79 70.86 12/30/2019 05:20:48 -81.29,-143.89 70.84 1.81 15
61 12/30/2019 06:11:47 81.28, 23.90 109.09 12/30/2019 06:11:32 81.29, 23.72 109.12 3.18 15
62 12/30/2019 07:02:31 -81.28,-168.73 70.93 12/30/2019 07:02:16 -81.28,-168.55 70.94 3.02 15
63 12/30/2019 07:53:17 81.29, -1.82 109.13 12/30/2019 07:53:02 81.29, -1.72 109.13 1.66 15
64 12/30/2019 08:44:01 -81.29, 165.56 70.88 12/30/2019 08:43:47 -81.29, 165.63 70.88 1.26 14
65 12/30/2019 09:34:46 81.29, -27.14 109.12 12/30/2019 09:34:32 81.29, -27.15 109.13 0.13 14
66 12/30/2019 10:25:30 -81.29, 140.23 70.89 12/30/2019 10:25:17 -81.29, 140.20 70.88 0.51 13
67 12/30/2019 11:16:15 81.29, -52.47 109.11 12/30/2019 11:16:02 81.29, -52.58 109.14 1.91 13
68 12/30/2019 12:06:59 -81.29, 114.90 70.90 12/30/2019 12:06:47 -81.29, 114.76 70.88 2.27 12
69 12/30/2019 12:57:44 81.29, -77.80 109.10 12/30/2019 12:57:31 81.28, -77.63 109.09 2.93 13
70 12/30/2019 13:48:28 -81.29, 89.57 70.91 12/30/2019 13:48:16 -81.28, 89.72 70.92 2.55 12
71 12/30/2019 14:39:13 81.29,-103.13 109.10 12/30/2019 14:39:01 81.29,-103.06 109.09 1.15 12
72 12/30/2019 15:29:57 -81.29, 64.24 70.92 12/30/2019 15:29:46 -81.28, 64.29 70.92 0.79 11
73 12/30/2019 16:20:42 81.29,-128.46 109.09 12/30/2019 16:20:31 81.29,-128.49 109.10 0.63 11
74 12/30/2019 17:11:27 -81.29, 38.52 70.88 12/30/2019 17:11:17 -81.29, 38.47 70.86 0.98 10
75 12/30/2019 18:02:11 81.29,-153.78 109.08 12/30/2019 18:02:01 81.29,-153.93 109.10 2.41 10
76 12/30/2019 18:52:56 -81.29, 13.20 70.88 12/30/2019 18:52:47 -81.29, 13.03 70.86 2.74 9
77 12/30/2019 19:43:41 81.29,-179.50 109.12 12/30/2019 19:43:31 81.29,-179.36 109.11 2.43 10
78 12/30/2019 20:34:25 -81.29, -12.13 70.89 12/30/2019 20:34:16 -81.29, -12.01 70.91 2.09 9
79 12/30/2019 21:25:10 81.29, 155.17 109.11 12/30/2019 21:25:01 81.29, 155.21 109.11 0.64 9
80 12/30/2019 22:15:54 -81.29, -37.46 70.90 12/30/2019 22:15:46 -81.29, -37.44 70.90 0.32 8
81 12/30/2019 23:06:39 81.29, 129.84 109.10 12/30/2019 23:06:31 81.29, 129.77 109.12 1.14 8
82 12/30/2019 23:57:23 -81.29, -62.79 70.91 12/30/2019 23:57:16 -81.29, -62.87 70.90 1.44 7
83 12/31/2019 00:48:08 81.29, 104.51 109.09 12/31/2019 00:48:01 81.29, 104.34 109.12 2.92 7
84 12/31/2019 01:38:52 -81.29, -88.12 70.92 12/31/2019 01:38:46 -81.29, -88.31 70.89 3.21 6
85 12/31/2019 02:29:37 81.29, 79.18 109.08 12/31/2019 02:29:30 81.29, 79.30 109.07 1.92 7
86 12/31/2019 03:20:21 -81.29,-113.45 70.93 12/31/2019 03:20:15 -81.28,-113.35 70.94 1.62 6
87 12/31/2019 04:11:06 81.29, 53.86 109.07 12/31/2019 04:11:00 81.29, 53.86 109.07 0.14 6
88 12/31/2019 05:01:51 -81.29,-139.16 70.89 12/31/2019 05:01:46 -81.29,-139.17 70.88 0.15 5
89 12/31/2019 05:52:35 81.29, 28.53 109.06 12/31/2019 05:52:30 81.29, 28.43 109.08 1.65 5
90 12/31/2019 06:43:20 -81.29,-164.49 70.90 12/31/2019 06:43:16 -81.29,-164.60 70.88 1.91 4
91 12/31/2019 07:34:05 81.29, 2.81 109.11 12/31/2019 07:34:00 81.29, 3.00 109.08 3.19 5
92 12/31/2019 08:24:49 -81.29, 170.18 70.91 12/31/2019 08:24:45 -81.29, 170.35 70.93 2.92 4
93 12/31/2019 09:15:34 81.29, -22.52 109.10 12/31/2019 09:15:30 81.29, -22.44 109.09 1.41 4
94 12/31/2019 10:06:18 -81.29, 144.85 70.92 12/31/2019 10:06:15 -81.29, 144.92 70.93 1.15 3
95 12/31/2019 10:57:03 81.29, -47.85 109.09 12/31/2019 10:57:00 81.29, -47.87 109.09 0.37 3
96 12/31/2019 11:47:47 -81.29, 119.52 70.93 12/31/2019 11:47:45 -81.29, 119.49 70.92 0.61 2
97 12/31/2019 12:38:32 81.29, -73.18 109.08 12/31/2019 12:38:30 81.29, -73.31 109.10 2.15 2
98 12/31/2019 13:29:16 -81.29, 94.19 70.94 12/31/2019 13:29:15 -81.29, 94.05 70.92 2.38 1
99 12/31/2019 14:20:01 81.29, -98.51 109.07 12/31/2019 14:19:59 81.29, -98.35 109.05 2.69 2
100 12/31/2019 15:10:45 -81.29, 68.87 70.95 12/31/2019 15:10:44 -81.29, 69.01 70.97 2.45 1
101 12/31/2019 16:01:30 81.29,-123.83 109.06 12/31/2019 16:01:29 81.29,-123.78 109.05 0.90 1
102 12/31/2019 16:52:15 -81.29, 43.15 70.90 12/31/2019 16:52:15 -81.29, 43.19 70.91 0.69 0
103 12/31/2019 17:42:59 81.29,-149.16 109.05 12/31/2019 17:42:59 81.29,-149.21 109.06 0.88 0
104 12/31/2019 18:33:44 -81.29, 17.82 70.91 12/31/2019 18:33:45 -81.29, 17.76 70.90 1.08 1
105 12/31/2019 19:24:28 81.29,-174.49 109.04 12/31/2019 19:24:29 81.29,-174.65 109.06 2.66 1
106 12/31/2019 20:15:13 -81.29, -7.51 70.92 12/31/2019 20:15:15 -81.29, -7.68 70.90 2.84 2
107 12/31/2019 21:05:58 81.29, 159.79 109.08 12/31/2019 21:05:59 81.29, 159.92 109.06 2.18 1
108 12/31/2019 21:56:42 -81.29, -32.84 70.93 12/31/2019 21:56:44 -81.29, -32.72 70.95 1.98 2
109 12/31/2019 22:47:27 81.29, 134.46 109.07 12/31/2019 22:47:29 81.29, 134.48 109.07 0.40 2
110 12/31/2019 23:38:11 -81.29, -58.17 70.94 12/31/2019 23:38:14 -81.29, -58.15 70.95 0.22 3
111 01/01/2020 00:28:56 81.29, 109.13 109.06 01/01/2020 00:28:59 81.29, 109.05 109.07 1.39 3
112 01/01/2020 01:19:40 -81.29, -83.49 70.95 01/01/2020 01:19:44 -81.29, -83.59 70.94 1.55 4
113 01/01/2020 02:10:25 81.29, 83.80 109.05 01/01/2020 02:10:29 81.29, 83.62 109.08 3.17 4
114 01/01/2020 03:01:09 -81.29,-108.82 70.96 01/01/2020 03:01:13 -81.29,-108.63 70.99 3.28 4
115 01/01/2020 03:51:55 81.29, 58.08 109.10 01/01/2020 03:51:59 81.29, 58.18 109.08 1.67 4
116 01/01/2020 04:42:38 -81.29,-134.15 70.97 01/01/2020 04:42:43 -81.29,-134.06 70.99 1.51 5
117 01/01/2020 05:33:24 81.29, 32.76 109.09 01/01/2020 05:33:29 81.29, 32.75 109.08 0.13 5
118 01/01/2020 06:24:07 -81.29,-159.87 70.93 01/01/2020 06:24:13 -81.29,-159.88 70.93 0.25 6
119 01/01/2020 07:14:51 81.29, 7.82 109.02 01/01/2020 07:14:57 81.29, 7.71 109.03 1.89 6
120 01/01/2020 08:05:36 -81.29, 174.80 70.94 01/01/2020 08:05:43 -81.29, 174.68 70.93 2.02 7
121 01/01/2020 08:56:21 81.29, -17.90 109.06 01/01/2020 08:56:27 81.29, -17.73 109.04 2.95 6
122 01/01/2020 09:47:05 -81.29, 149.47 70.95 01/01/2020 09:47:12 -81.29, 149.64 70.98 2.81 7
123 01/01/2020 10:37:50 81.29, -43.23 109.05 01/01/2020 10:37:57 81.29, -43.16 109.04 1.16 7
124 01/01/2020 11:28:34 -81.29, 124.15 70.96 01/01/2020 11:28:42 -81.29, 124.21 70.97 1.04 8
125 01/01/2020 12:19:19 81.29, -68.56 109.04 01/01/2020 12:19:27 81.29, -68.59 109.04 0.62 8
126 01/01/2020 13:10:03 -81.29, 98.82 70.97 01/01/2020 13:10:12 -81.29, 98.77 70.97 0.72 9
127 01/01/2020 14:00:48 81.29, -93.89 109.03 01/01/2020 14:00:57 81.29, -94.03 109.05 2.40 9
128 01/01/2020 14:51:33 -81.29, 73.10 70.93 01/01/2020 14:51:43 -81.30, 72.95 70.91 2.49 10
129 01/01/2020 15:42:18 81.29,-119.61 109.08 01/01/2020 15:42:27 81.29,-119.46 109.05 2.44 9
130 01/01/2020 16:33:01 -81.29, 48.16 70.99 01/01/2020 16:33:11 -81.29, 48.30 71.02 2.34 10
131 01/01/2020 17:23:47 81.29,-144.94 109.07 01/01/2020 17:23:57 81.29,-144.90 109.06 0.66 10
132 01/01/2020 18:14:31 -81.29, 22.44 70.95 01/01/2020 18:14:42 -81.29, 22.48 70.96 0.58 11
133 01/01/2020 19:05:16 81.29,-170.26 109.06 01/01/2020 19:05:27 81.29,-170.33 109.06 1.12 11
134 01/01/2020 19:56:00 -81.29, -2.89 70.96 01/01/2020 19:56:12 -81.29, -2.96 70.96 1.19 12
135 01/01/2020 20:46:45 81.29, 164.41 109.05 01/01/2020 20:46:57 81.29, 164.24 109.06 2.90 12
136 01/01/2020 21:37:29 -81.29, -28.22 70.97 01/01/2020 21:37:42 -81.29, -28.39 70.95 2.96 13
137 01/01/2020 22:28:14 81.29, 139.08 109.03 01/01/2020 22:28:26 81.29, 139.19 109.01 1.93 12
138 01/01/2020 23:18:58 -81.29, -53.54 70.98 01/01/2020 23:19:11 -81.29, -53.43 71.00 1.87 13
139 01/02/2020 00:09:43 81.29, 113.75 109.02 01/02/2020 00:09:56 81.29, 113.76 109.02 0.15 13
140 01/02/2020 01:00:27 -81.29, -78.87 70.99 01/02/2020 01:00:41 -81.29, -78.87 71.00 0.11 14
141 01/02/2020 01:51:12 81.29, 88.42 109.01 01/02/2020 01:51:26 81.29, 88.33 109.02 1.63 14
142 01/02/2020 02:41:57 -81.29,-104.59 70.95 01/02/2020 02:42:12 -81.30,-104.69 70.94 1.66 15
143 01/02/2020 03:32:42 81.29, 62.70 109.06 01/02/2020 03:32:56 81.29, 62.89 109.02 3.21 14
144 01/02/2020 04:23:25 -81.29,-129.53 71.01 01/02/2020 04:23:40 -81.29,-129.34 71.05 3.17 15
145 01/02/2020 05:14:11 81.29, 37.37 109.05 01/02/2020 05:14:26 81.29, 37.46 109.03 1.43 15
146 01/02/2020 06:04:55 -81.29,-155.25 70.97 01/02/2020 06:05:11 -81.29,-155.17 70.99 1.40 16
147 01/02/2020 06:55:40 81.29, 12.05 109.04 01/02/2020 06:55:56 81.29, 12.02 109.03 0.35 16
148 01/02/2020 07:46:24 -81.29, 179.42 70.98 01/02/2020 07:46:41 -81.29, 179.40 70.99 0.37 17
149 01/02/2020 08:37:09 81.29, -13.28 109.02 01/02/2020 08:37:26 81.30, -13.41 109.03 2.13 17
150 01/02/2020 09:27:53 -81.29, 154.09 70.99 01/02/2020 09:28:11 -81.29, 153.97 70.98 2.13 18
151 01/02/2020 10:18:38 81.29, -38.61 109.01 01/02/2020 10:18:55 81.29, -38.45 108.98 2.71 17
152 01/02/2020 11:09:22 -81.29, 128.77 71.00 01/02/2020 11:09:40 -81.29, 128.93 71.04 2.69 18
153 01/02/2020 12:00:07 81.29, -63.94 109.00 01/02/2020 12:00:25 81.29, -63.89 108.98 0.92 18
154 01/02/2020 12:50:51 -81.29, 103.44 71.01 01/02/2020 12:51:10 -81.29, 103.49 71.03 0.93 19
155 01/02/2020 13:41:36 81.29, -89.27 108.99 01/02/2020 13:41:55 81.29, -89.32 108.99 0.86 19
156 01/02/2020 14:32:21 -81.30, 77.72 70.97 01/02/2020 14:32:41 -81.30, 77.67 70.97 0.84 20
157 01/02/2020 15:23:05 81.29,-114.60 108.98 01/02/2020 15:23:25 81.29,-114.75 108.99 2.64 20
158 01/02/2020 16:13:50 -81.29, 52.39 70.98 01/02/2020 16:14:11 -81.30, 52.24 70.97 2.60 21
159 01/02/2020 17:04:35 81.30,-140.32 109.02 01/02/2020 17:04:55 81.29,-140.19 108.99 2.20 20
160 01/02/2020 17:55:19 -81.29, 27.06 70.99 01/02/2020 17:55:40 -81.29, 27.19 71.02 2.22 21
161 01/02/2020 18:46:04 81.29,-165.65 109.01 01/02/2020 18:46:25 81.29,-165.62 109.00 0.42 21
162 01/02/2020 19:36:48 -81.29, 1.73 71.00 01/02/2020 19:37:10 -81.29, 1.76 71.02 0.46 22
163 01/02/2020 20:27:33 81.29, 169.03 109.00 01/02/2020 20:27:55 81.30, 168.94 109.00 1.36 22
164 01/02/2020 21:18:17 -81.29, -23.60 71.02 01/02/2020 21:18:40 -81.29, -23.67 71.02 1.31 23
165 01/02/2020 22:09:02 81.29, 143.70 108.99 01/02/2020 22:09:25 81.30, 143.51 109.00 3.14 23
166 01/02/2020 22:59:46 -81.29, -48.92 71.03 01/02/2020 23:00:10 -81.30, -49.11 71.01 3.08 24
167 01/02/2020 23:50:31 81.29, 118.37 108.98 01/02/2020 23:50:54 81.29, 118.47 108.95 1.70 23
168 01/03/2020 00:41:15 -81.29, -74.25 71.04 01/03/2020 00:41:39 -81.29, -74.15 71.07 1.75 24
169 01/03/2020 01:32:00 81.29, 93.04 108.97 01/03/2020 01:32:24 81.29, 93.03 108.96 0.09 24
170 01/03/2020 02:22:45 -81.30, -99.97 70.99 01/03/2020 02:23:10 -81.30, -99.97 71.01 0.07 25
171 01/03/2020 03:13:29 81.29, 67.71 108.96 01/03/2020 03:13:54 81.29, 67.60 108.96 1.87 25
172 01/03/2020 04:04:14 -81.30,-125.30 71.01 01/03/2020 04:04:40 -81.30,-125.41 71.01 1.78 26
173 01/03/2020 04:54:59 81.30, 41.99 109.00 01/03/2020 04:55:24 81.29, 42.17 108.96 2.97 25
174 01/03/2020 05:45:43 -81.30,-150.63 71.02 01/03/2020 05:46:09 -81.29,-150.45 71.06 3.04 26
175 01/03/2020 06:36:28 81.30, 16.66 108.99 01/03/2020 06:36:54 81.30, 16.73 108.96 1.19 26
176 01/03/2020 07:27:12 -81.29,-175.96 71.03 01/03/2020 07:27:39 -81.29,-175.88 71.05 1.28 27
177 01/03/2020 08:17:57 81.30, -8.67 108.98 01/03/2020 08:18:24 81.30, -8.70 108.97 0.59 27
178 01/03/2020 09:08:40 -81.29, 158.71 71.04 01/03/2020 09:09:08 -81.29, 158.69 71.05 0.49 28
179 01/03/2020 09:59:25 81.29, -33.99 108.97 01/03/2020 09:59:53 81.30, -34.14 108.97 2.37 28
180 01/03/2020 10:50:09 -81.29, 133.39 71.05 01/03/2020 10:50:38 -81.30, 133.25 71.05 2.25 29
181 01/03/2020 11:40:54 81.29, -59.32 108.95 01/03/2020 11:41:22 81.29, -59.18 108.92 2.47 28
182 01/03/2020 12:31:38 -81.29, 108.06 71.06 01/03/2020 12:32:07 -81.29, 108.21 71.10 2.57 29
183 01/03/2020 13:22:23 81.29, -84.65 108.94 01/03/2020 13:22:52 81.29, -84.61 108.92 0.69 29
184 01/03/2020 14:13:07 -81.29, 82.73 71.07 01/03/2020 14:13:37 -81.29, 82.78 71.10 0.81 30
185 01/03/2020 15:03:52 81.29,-109.98 108.93 01/03/2020 15:04:22 81.29,-110.05 108.92 1.09 30
186 01/03/2020 15:54:37 -81.30, 57.01 71.03 01/03/2020 15:55:08 -81.30, 56.95 71.04 0.96 31
187 01/03/2020 16:45:21 81.29,-135.31 108.92 01/03/2020 16:45:52 81.29,-135.48 108.93 2.87 31
188 01/03/2020 17:36:06 -81.30, 31.68 71.04 01/03/2020 17:36:38 -81.30, 31.52 71.04 2.73 32
189 01/03/2020 18:26:51 81.30,-161.03 108.96 01/03/2020 18:27:22 81.30,-160.91 108.93 1.97 31
190 01/03/2020 19:17:35 -81.30, 6.35 71.06 01/03/2020 19:18:07 -81.29, 6.48 71.09 2.10 32
191 01/03/2020 20:08:20 81.30, 173.64 108.95 01/03/2020 20:08:52 81.30, 173.65 108.93 0.19 32
192 01/03/2020 20:59:04 -81.30, -18.98 71.07 01/03/2020 20:59:37 -81.30, -18.96 71.09 0.33 33
193 01/03/2020 21:49:49 81.30, 148.31 108.94 01/03/2020 21:50:22 81.30, 148.22 108.93 1.60 33
194 01/03/2020 22:40:33 -81.29, -44.30 71.08 01/03/2020 22:41:07 -81.30, -44.39 71.09 1.44 34
195 01/03/2020 23:31:18 81.30, 122.98 108.93 01/03/2020 23:31:51 81.29, 123.18 108.88 3.24 33
196 01/04/2020 00:22:02 -81.29, -69.63 71.09 01/04/2020 00:22:37 -81.30, -69.82 71.08 3.20 35
197 01/04/2020 01:12:47 81.29, 97.66 108.92 01/04/2020 01:13:21 81.29, 97.74 108.88 1.46 34
198 01/04/2020 02:03:31 -81.29, -94.96 71.10 01/04/2020 02:04:06 -81.29, -94.87 71.14 1.62 35
199 01/04/2020 02:54:16 81.29, 72.33 108.90 01/04/2020 02:54:51 81.29, 72.31 108.89 0.32 35
200 01/04/2020 03:45:01 -81.30,-120.68 71.06 01/04/2020 03:45:37 -81.30,-120.69 71.08 0.15 36
201 01/04/2020 04:35:45 81.29, 47.00 108.89 01/04/2020 04:36:21 81.29, 46.87 108.89 2.10 36
202 01/04/2020 05:26:30 -81.30,-146.01 71.07 01/04/2020 05:27:07 -81.30,-146.12 71.08 1.91 37
203 01/04/2020 06:17:15 81.30, 21.28 108.93 01/04/2020 06:17:51 81.30, 21.44 108.89 2.74 36
204 01/04/2020 07:07:59 -81.30,-171.34 71.08 01/04/2020 07:08:36 -81.29,-171.17 71.13 2.91 37
205 01/04/2020 07:58:44 81.30, -4.05 108.92 01/04/2020 07:59:21 81.30, -3.99 108.89 0.96 37
206 01/04/2020 08:49:28 -81.30, 163.33 71.10 01/04/2020 08:50:06 -81.30, 163.40 71.13 1.15 38
207 01/04/2020 09:40:13 81.30, -29.38 108.91 01/04/2020 09:40:51 81.30, -29.43 108.90 0.82 38
208 01/04/2020 10:30:57 -81.30, 138.00 71.11 01/04/2020 10:31:36 -81.30, 137.97 71.12 0.62 39
209 01/04/2020 11:21:42 81.30, -54.71 108.90 01/04/2020 11:22:21 81.30, -54.86 108.90 2.60 39
210 01/04/2020 12:12:26 -81.30, 112.68 71.12 01/04/2020 12:13:06 -81.30, 112.53 71.12 2.39 40
211 01/04/2020 13:03:11 81.30, -80.04 108.89 01/04/2020 13:03:50 81.29, -79.90 108.85 2.24 39
212 01/04/2020 13:53:55 -81.30, 87.35 71.13 01/04/2020 13:54:35 -81.29, 87.49 71.17 2.44 40
213 01/04/2020 14:44:40 81.30,-105.37 108.87 01/04/2020 14:45:20 81.29,-105.34 108.85 0.46 40
214 01/04/2020 15:35:25 -81.30, 61.63 71.09 01/04/2020 15:36:06 -81.30, 61.67 71.12 0.68 41
215 01/04/2020 16:26:09 81.29,-130.69 108.86 01/04/2020 16:26:50 81.30,-130.77 108.85 1.33 41
216 01/04/2020 17:16:54 -81.30, 36.30 71.10 01/04/2020 17:17:36 -81.30, 36.23 71.12 1.09 42
217 01/04/2020 18:07:38 81.29,-156.02 108.85 01/04/2020 18:08:20 81.30,-156.21 108.85 3.11 42
218 01/04/2020 18:58:23 -81.30, 10.97 71.11 01/04/2020 18:59:06 -81.30, 10.80 71.11 2.86 43
219 01/04/2020 19:49:08 81.30, 178.26 108.89 01/04/2020 19:49:50 81.30, 178.36 108.85 1.74 42
220 01/04/2020 20:39:52 -81.30, -14.36 71.13 01/04/2020 20:40:35 -81.30, -14.24 71.17 1.96 43
221 01/04/2020 21:30:37 81.30, 152.93 108.88 01/04/2020 21:31:20 81.30, 152.92 108.86 0.05 43
222 01/04/2020 22:21:21 -81.30, -39.69 71.14 01/04/2020 22:22:05 -81.30, -39.68 71.16 0.20 44
223 01/04/2020 23:12:06 81.30, 127.60 108.87 01/04/2020 23:12:50 81.30, 127.49 108.86 1.83 44
224 01/05/2020 00:02:50 -81.30, -65.02 71.15 01/05/2020 00:03:35 -81.30, -65.11 71.16 1.57 45
225 01/05/2020 00:53:35 81.30, 102.27 108.86 01/05/2020 00:54:19 81.29, 102.45 108.81 3.01 44
226 01/05/2020 01:44:19 -81.30, -90.34 71.16 01/05/2020 01:45:04 -81.29, -90.15 71.22 3.25 45
227 01/05/2020 02:35:04 81.30, 76.94 108.84 01/05/2020 02:35:49 81.29, 77.01 108.81 1.23 45
228 01/05/2020 03:25:49 -81.30,-116.06 71.12 01/05/2020 03:26:35 -81.30,-115.98 71.16 1.49 46
229 01/05/2020 04:16:33 81.30, 51.61 108.83 01/05/2020 04:17:19 81.30, 51.58 108.81 0.55 46
230 01/05/2020 05:07:18 -81.30,-141.39 71.13 01/05/2020 05:08:05 -81.30,-141.41 71.16 0.28 47
231 01/05/2020 05:58:02 81.30, 26.28 108.82 01/05/2020 05:58:49 81.30, 26.15 108.81 2.33 47
232 01/05/2020 06:48:47 -81.30,-166.72 71.15 01/05/2020 06:49:35 -81.30,-166.84 71.16 2.05 48
233 01/05/2020 07:39:32 81.30, 0.56 108.86 01/05/2020 07:40:19 81.30, 0.71 108.81 2.51 47
234 01/05/2020 08:30:16 -81.30, 167.95 71.16 01/05/2020 08:31:04 -81.30, 168.11 71.21 2.78 48
235 01/05/2020 09:21:01 81.30, -24.77 108.85 01/05/2020 09:21:49 81.30, -24.72 108.81 0.73 48
236 01/05/2020 10:11:45 -81.30, 142.62 71.17 01/05/2020 10:12:34 -81.30, 142.68 71.21 1.01 49
237 01/05/2020 11:02:30 81.30, -50.10 108.84 01/05/2020 11:03:19 81.30, -50.16 108.82 1.05 49
238 01/05/2020 11:53:14 -81.30, 117.29 71.18 01/05/2020 11:54:04 -81.30, 117.25 71.21 0.76 50
239 01/05/2020 12:43:58 81.30, -75.42 108.82 01/05/2020 12:44:48 81.30, -75.59 108.82 2.83 50
240 01/05/2020 13:34:42 -81.30, 91.96 71.20 01/05/2020 13:35:33 -81.30, 91.81 71.20 2.52 51
241 01/05/2020 14:25:27 81.30,-100.75 108.81 01/05/2020 14:26:17 81.30,-100.63 108.77 2.01 50
242 01/05/2020 15:16:12 -81.30, 66.24 71.15 01/05/2020 15:17:03 -81.30, 66.38 71.20 2.30 51
243 01/05/2020 16:06:56 81.30,-126.08 108.80 01/05/2020 16:07:47 81.30,-126.07 108.77 0.24 51
244 01/05/2020 16:57:41 -81.30, 40.92 71.17 01/05/2020 16:58:33 -81.30, 40.95 71.20 0.54 52
245 01/05/2020 17:48:25 81.30,-151.41 108.79 01/05/2020 17:49:17 81.30,-151.50 108.77 1.55 52
246 01/05/2020 18:39:10 -81.30, 15.59 71.18 01/05/2020 18:40:03 -81.30, 15.51 71.20 1.23 53
247 01/05/2020 19:29:55 81.30,-177.13 108.83 01/05/2020 19:30:47 81.30,-176.94 108.77 3.29 52
248 01/05/2020 20:20:39 -81.30, -9.74 71.19 01/05/2020 20:21:33 -81.30, -9.92 71.20 3.00 54
249 01/05/2020 21:11:24 81.30, 157.54 108.81 01/05/2020 21:12:17 81.30, 157.63 108.77 1.51 53
250 01/05/2020 22:02:08 -81.30, -35.07 71.20 01/05/2020 22:03:02 -81.30, -34.96 71.25 1.82 54
251 01/05/2020 22:52:53 81.30, 132.21 108.80 01/05/2020 22:53:47 81.30, 132.19 108.77 0.27 54
252 01/05/2020 23:43:37 -81.30, -60.40 71.22 01/05/2020 23:44:32 -81.30, -60.40 71.25 0.06 55
253 01/06/2020 00:34:22 81.30, 106.88 108.79 01/06/2020 00:35:17 81.30, 106.76 108.77 2.05 55
254 01/06/2020 01:25:06 -81.30, -85.73 71.23 01/06/2020 01:26:02 -81.30, -85.83 71.25 1.71 56
255 01/06/2020 02:15:51 81.30, 81.55 108.78 01/06/2020 02:16:46 81.30, 81.72 108.72 2.79 55
256 01/06/2020 03:06:35 -81.30,-111.06 71.24 01/06/2020 03:07:31 -81.29,-110.87 71.30 3.11 56
257 01/06/2020 03:57:20 81.30, 56.22 108.76 01/06/2020 03:58:16 81.30, 56.28 108.72 1.01 56
258 01/06/2020 04:48:05 -81.30,-136.78 71.20 01/06/2020 04:49:02 -81.30,-136.70 71.25 1.35 57
259 01/06/2020 05:38:49 81.30, 30.90 108.75 01/06/2020 05:39:46 81.30, 30.85 108.72 0.77 57
260 01/06/2020 06:29:34 -81.30,-162.11 71.21 01/06/2020 06:30:32 -81.30,-162.13 71.24 0.43 58
261 01/06/2020 07:20:18 81.30, 5.57 108.74 01/06/2020 07:21:16 81.30, 5.42 108.73 2.55 58
262 01/06/2020 08:11:03 -81.30, 172.57 71.23 01/06/2020 08:12:02 -81.30, 172.44 71.24 2.19 59
263 01/06/2020 09:01:48 81.30, -20.15 108.78 01/06/2020 09:02:46 81.30, -20.02 108.73 2.29 58
264 01/06/2020 09:52:32 -81.30, 147.24 71.24 01/06/2020 09:53:31 -81.30, 147.39 71.30 2.63 59
265 01/06/2020 10:43:17 81.30, -45.48 108.77 01/06/2020 10:44:16 81.30, -45.45 108.73 0.51 59
266 01/06/2020 11:34:01 -81.30, 121.91 71.25 01/06/2020 11:35:01 -81.30, 121.96 71.30 0.87 60
267 01/06/2020 12:24:46 81.30, -70.81 108.75 01/06/2020 12:25:46 81.30, -70.89 108.73 1.27 60
268 01/06/2020 13:15:30 -81.30, 96.58 71.27 01/06/2020 13:16:31 -81.30, 96.53 71.29 0.90 61
269 01/06/2020 14:06:15 81.30, -96.14 108.74 01/06/2020 14:07:16 81.30, -96.32 108.73 3.05 61
270 01/06/2020 14:56:59 -81.30, 71.25 71.28 01/06/2020 14:58:01 -81.30, 71.09 71.29 2.67 62
271 01/06/2020 15:47:44 81.30,-121.47 108.73 01/06/2020 15:48:45 81.30,-121.36 108.68 1.79 61
272 01/06/2020 16:38:29 -81.30, 45.53 71.24 01/06/2020 16:39:31 -81.30, 45.66 71.29 2.15 62
273 01/06/2020 17:29:13 81.30,-146.80 108.71 01/06/2020 17:30:15 81.30,-146.80 108.68 0.07 62
274 01/06/2020 18:19:58 -81.30, 20.20 71.25 01/06/2020 18:21:01 -81.30, 20.23 71.29 0.39 63
275 01/06/2020 19:10:42 81.30,-172.13 108.70 01/06/2020 19:11:45 81.30,-172.23 108.68 1.77 63
276 01/06/2020 20:01:27 -81.30, -5.13 71.27 01/06/2020 20:02:31 -81.30, -5.21 71.29 1.38 64
277 01/06/2020 20:52:12 81.30, 162.15 108.74 01/06/2020 20:53:15 81.30, 162.33 108.68 3.07 63
278 01/06/2020 21:42:56 -81.30, -30.46 71.28 01/06/2020 21:44:01 -81.30, -30.64 71.29 3.15 65
279 01/06/2020 22:33:41 81.30, 136.82 108.73 01/06/2020 22:34:45 81.30, 136.90 108.68 1.29 64
280 01/06/2020 23:24:25 -81.30, -55.78 71.29 01/06/2020 23:25:30 -81.30, -55.68 71.34 1.67 65
281 01/07/2020 00:15:10 81.30, 111.49 108.71 01/07/2020 00:16:15 81.30, 111.46 108.68 0.49 65
282 01/07/2020 01:05:54 -81.30, -81.11 71.31 01/07/2020 01:07:00 -81.30, -81.12 71.34 0.10 66
283 01/07/2020 01:56:39 81.30, 86.16 108.70 01/07/2020 01:57:45 81.30, 86.03 108.68 2.27 66
284 01/07/2020 02:47:23 -81.30,-106.44 71.32 01/07/2020 02:48:30 -81.30,-106.55 71.34 1.86 67
285 01/07/2020 03:38:08 81.30, 60.84 108.69 01/07/2020 03:39:14 81.30, 60.99 108.63 2.57 66
286 01/07/2020 04:28:53 -81.30,-132.16 71.28 01/07/2020 04:30:00 -81.30,-131.99 71.34 2.96 67
287 01/07/2020 05:19:37 81.30, 35.51 108.67 01/07/2020 05:20:44 81.30, 35.55 108.63 0.79 67
288 01/07/2020 06:10:22 -81.30,-157.49 71.29 01/07/2020 06:11:30 -81.30,-157.42 71.34 1.19 68
289 01/07/2020 07:01:06 81.30, 10.18 108.66 01/07/2020 07:02:14 81.30, 10.12 108.63 0.99 68
290 01/07/2020 07:51:51 -81.30, 177.18 71.30 01/07/2020 07:53:00 -81.30, 177.15 71.34 0.58 69
291 01/07/2020 08:42:35 81.30, -15.15 108.65 01/07/2020 08:43:44 81.30, -15.32 108.63 2.77 69
292 01/07/2020 09:33:20 -81.30, 151.85 71.32 01/07/2020 09:34:30 -81.30, 151.71 71.34 2.34 70
293 01/07/2020 10:24:05 81.30, -40.87 108.69 01/07/2020 10:25:14 81.30, -40.75 108.63 2.07 69
294 01/07/2020 11:14:49 -81.30, 126.52 71.33 01/07/2020 11:15:59 -81.30, 126.67 71.39 2.48 70
295 01/07/2020 12:05:34 81.30, -66.20 108.67 01/07/2020 12:06:44 81.30, -66.18 108.63 0.29 70
296 01/07/2020 12:56:18 -81.30, 101.19 71.35 01/07/2020 12:57:29 -81.30, 101.24 71.39 0.71 71
297 01/07/2020 13:47:03 81.30, -91.53 108.66 01/07/2020 13:48:14 81.30, -91.62 108.63 1.49 71
298 01/07/2020 14:37:47 -81.30, 75.87 71.36 01/07/2020 14:38:59 -81.30, 75.80 71.39 1.06 72
299 01/07/2020 15:28:31 81.30,-116.86 108.65 01/07/2020 15:29:43 81.30,-117.05 108.63 3.27 72
300 01/07/2020 16:19:15 -81.30, 50.54 71.37 01/07/2020 16:20:28 -81.30, 50.37 71.39 2.83 73
301 01/07/2020 17:10:00 81.30,-142.19 108.63 01/07/2020 17:11:12 81.30,-142.10 108.58 1.58 72
302 01/07/2020 18:00:45 -81.30, 24.82 71.33 01/07/2020 18:01:58 -81.30, 24.94 71.39 2.00 73
303 01/07/2020 18:51:29 81.30,-167.52 108.62 01/07/2020 18:52:42 81.30,-167.53 108.58 0.22 73
304 01/07/2020 19:42:14 -81.30, -0.51 71.35 01/07/2020 19:43:28 -81.30, -0.50 71.39 0.23 74
305 01/07/2020 20:32:58 81.30, 167.15 108.61 01/07/2020 20:34:12 81.30, 167.04 108.58 1.99 74
306 01/07/2020 21:23:43 -81.30, -25.84 71.36 01/07/2020 21:24:58 -81.30, -25.93 71.39 1.54 75
307 01/07/2020 22:14:28 81.30, 141.43 108.65 01/07/2020 22:15:42 81.30, 141.60 108.58 2.86 74
308 01/07/2020 23:05:12 -81.30, -51.17 71.37 01/07/2020 23:06:27 -81.30, -50.98 71.44 3.28 75




NCC Satellite Simultaneous Nadir Overpasses (SNOs) Prediction Service
